Regional Weather Roundup
Issued by NWS

Home | Current Version | Previous Version | Graphics & Text | Print | Product List | Glossary On
Versions: 1 2 3 4 5 6 7 8 9 10 11 12 13 14 15 16 17 18 19 20 21 22 23 24 25 26 27 28 29 30 31 32 33 34 35 36 37 38 39 40 41 42 43 44 45 46 47 48 49 50
671
ASUS44 KLIX 012110
RWRLA
LOUISIANA WEATHER ROUNDUP
NATIONAL WEATHER SERVICE NEW ORLEANS LA
400 PM CDT MON SEP 01 2014

NOTE: "FAIR" INDICATES FEW OR NO CLOUDS BELOW 12,000 FEET WITH NO
      SIGNIFICANT WEATHER AND/OR OBSTRUCTIONS TO VISIBILITY.
      SKY/WX - SKY CONDITION AND SIGNIFICANT WEATHER.
      TMP - AIR TEMPERATURE.    DP   - DEWPOINT TEMPERATURE.
      RH  - RELATIVE HUMIDITY.  PRES - PRESSURE.
      HX  - HEAT INDEX.         WCI  - WIND CHILL INDEX.

*  THESE STATIONS ARE NOT NWS OR FAA STATIONS AND ARE NOT UNDER
   NWS QUALITY CONTROL.

LAZ040-048-061>063-065-066-069-012200-
SOUTHEAST LOUISIANA

CITY           SKY/WX    TMP DP  RH WIND       PRES   REMARKS
N.O. AUDUBON   NOT AVBL
N.O. INTL ARPT PTSUNNY   83  74  74 E15       30.01S THUNDER
N.O. LAKEFRONT LGT RAIN  78  74  87 S7        30.03R
N.O. DOWNTOWN* MOCLDY    79  72  78 CALM      30.02F
SLIDELL        PTSUNNY   86  76  71 SE12      30.01F HX  96
BATON ROUGE    CLOUDY    81  73  76 SW7       30.00R
BOOTHVILLE     PTSUNNY   89  77  67 S12       30.02F HX 101
BELLE CHASSE   TSTM      84  76  76 SE10G21   30.01S
BOGALUSA*      FAIR      87  74  65 SE5       30.03F HX  95
GALLIANO*      NOT AVBL
NEW ROADS*     TSTM      80  73  81 SE13G24   30.00R
GONZALES*      CLOUDY    81  76  84 SW5       29.99F
HAMMOND*       PTSUNNY   90  70  51 SE14      30.01F HX  95
HOUMA*         MOSUNNY   86  75  70 S8        30.00F HX  95
PORT FOURCHON* PTCLDY    88  77  70 S13       30.02S HX 100

$$

LAZ041-044-053-054-012200-
SOUTHWEST LOUISIANA

CITY           SKY/WX    TMP DP  RH WIND       PRES   REMARKS
LAKE CHARLES   MOSUNNY   89  74  60 S10       29.94F HX  98
LAFAYETTE      PTSUNNY   89  75  63 S12       29.97F HX  99
PATTERSON      PTSUNNY   86  77  74 S7        30.02R HX  97
SALT POINT       N/A     90  80  72 VRB6      29.98F HX 107
NEW IBERIA     PTSUNNY   88  76  67 S14       29.98F HX  99
CHENAULT AIRPK MOSUNNY   86  75  70 S13       29.96F HX  95

$$

LAZ027-028-012200-
CENTRAL LOUISIANA

CITY           SKY/WX    TMP DP  RH WIND       PRES   REMARKS
FORT POLK      CLOUDY    86  76  71 S8        29.96F HX  96
ALEXANDRIA INT MOSUNNY   90  74  59 SE7       29.93F HX  99
ALEXANDRIA     MOSUNNY   92  75  57 S3        29.95F HX 103

$$

LAZ001-002-012200-
NORTHWEST LOUISIANA

CITY           SKY/WX    TMP DP  RH WIND       PRES   REMARKS
SHREVEPORT     MOSUNNY   96  70  42 S10       29.91F HX 102
BARKSDALE AFB  MOSUNNY   93  73  50 SE12      29.92F HX 101
DTN SHREVEPORT MOSUNNY   91  74  57 S8        29.92F HX 100

$$

LAZ014-016-012200-
NORTHEAST LOUISIANA

CITY           SKY/WX    TMP DP  RH WIND       PRES   REMARKS
MONROE         PTSUNNY   90  72  55 S8        29.96F HX  97
TALLULAH       MOSUNNY   89  73  59 S5        29.96F HX  97

$$




USA.gov is the U.S. government's official web portal to all federal, state and local government web resources and services.